Satellite: NOAA-11
Catalog number: 19531
Epoch time:      10258.82538880
Element set:    0215
Inclination:      098.7668 deg
RA of node:       346.2989 deg
Eccentricity:    0.0010705
Arg of perigee:   249.8228 deg
Mean anomaly:     110.1795 deg
Mean motion:   14.14934147 rev/day
Decay rate:      -2.16e-06 rev/day^2
Epoch rev:           13395
Checksum:              323

Satellite: NOAA-12
Catalog number: 21263
Epoch time:      10258.74715395
Element set:    0709
Inclination:      098.7648 deg
RA of node:       271.8952 deg
Eccentricity:    0.0011507
Arg of perigee:   264.8435 deg
Mean anomaly:     095.1418 deg
Mean motion:   14.25653618 rev/day
Decay rate:        3.6e-07 rev/day^2
Epoch rev:           00530
Checksum:              309

Satellite: MET-3/5
Catalog number: 21655
Epoch time:      10259.64672143
Element set:     915
Inclination:      082.5538 deg
RA of node:       244.0072 deg
Eccentricity:    0.0014816
Arg of perigee:   117.7097 deg
Mean anomaly:     242.5502 deg
Mean motion:   13.17022118 rev/day
Decay rate:        5.1e-07 rev/day^2
Epoch rev:           91771
Checksum:              282

Satellite: MET-2/21
Catalog number: 22782
Epoch time:      10259.47891226
Element set:     885
Inclination:      082.5503 deg
RA of node:       180.0200 deg
Eccentricity:    0.0023049
Arg of perigee:   143.0298 deg
Mean anomaly:     217.2451 deg
Mean motion:   13.83649442 rev/day
Decay rate:        5.6e-07 rev/day^2
Epoch rev:           86070
Checksum:              291

Satellite: OKEAN-4
Catalog number: 23317
Epoch time:      10259.75663716
Element set:     341
Inclination:      082.5376 deg
RA of node:       268.3867 deg
Eccentricity:    0.0020614
Arg of perigee:   303.3370 deg
Mean anomaly:     056.5871 deg
Mean motion:   14.82859704 rev/day
Decay rate:       3.25e-06 rev/day^2
Epoch rev:           86002
Checksum:              305

Satellite: NOAA-14
Catalog number: 23455
Epoch time:      10258.72925089
Element set:    0197
Inclination:      098.8735 deg
RA of node:       338.8196 deg
Eccentricity:    0.0009297
Arg of perigee:   344.5291 deg
Mean anomaly:     015.5584 deg
Mean motion:   14.13794120 rev/day
Decay rate:        1.7e-07 rev/day^2
Epoch rev:           81029
Checksum:              331

Satellite: NOAA-15
Catalog number: 25338
Epoch time:      10258.88196748
Element set:    0523
Inclination:      098.6282 deg
RA of node:       244.2200 deg
Eccentricity:    0.0010823
Arg of perigee:   165.9031 deg
Mean anomaly:     194.2457 deg
Mean motion:   14.24853589 rev/day
Decay rate:       -8.4e-07 rev/day^2
Epoch rev:           64166
Checksum:              320

Satellite: RESURS
Catalog number: 25394
Epoch time:      10259.60875017
Element set:     604
Inclination:      098.3048 deg
RA of node:       272.7098 deg
Eccentricity:    0.0001293
Arg of perigee:   002.4732 deg
Mean anomaly:     357.6447 deg
Mean motion:   14.24209108 rev/day
Decay rate:       -2.1e-07 rev/day^2
Epoch rev:           63336
Checksum:              286

Satellite: FENGYUN1
Catalog number: 25730
Epoch time:      10259.39252328
Element set:     137
Inclination:      098.7924 deg
RA of node:       221.9951 deg
Eccentricity:    0.0022805
Arg of perigee:   009.8585 deg
Mean anomaly:     350.3058 deg
Mean motion:   14.08281412 rev/day
Decay rate:       4.51e-06 rev/day^2
Epoch rev:           58452
Checksum:              298

Satellite: OKEAN-0
Catalog number: 25860
Epoch time:      10258.51916153
Element set:    0101
Inclination:      097.8439 deg
RA of node:       228.1996 deg
Eccentricity:    0.0001621
Arg of perigee:   104.9131 deg
Mean anomaly:     255.2257 deg
Mean motion:   14.73661637 rev/day
Decay rate:        5.7e-07 rev/day^2
Epoch rev:           60020
Checksum:              279

Satellite: NOAA-16
Catalog number: 26536
Epoch time:      10258.82053546
Element set:    0999
Inclination:      099.1685 deg
RA of node:       278.4174 deg
Eccentricity:    0.0011326
Arg of perigee:   084.4304 deg
Mean anomaly:     275.8138 deg
Mean motion:   14.12577200 rev/day
Decay rate:       2.63e-06 rev/day^2
Epoch rev:           51462
Checksum:              314

Satellite: NOAA-17
Catalog number: 27453
Epoch time:      10258.76691424
Element set:    0993
Inclination:      098.4210 deg
RA of node:       305.5224 deg
Eccentricity:    0.0011011
Arg of perigee:   229.6143 deg
Mean anomaly:     130.4076 deg
Mean motion:   14.24189092 rev/day
Decay rate:       -9.1e-07 rev/day^2
Epoch rev:           42759
Checksum:              291

Satellite: NOAA-18
Catalog number: 28654
Epoch time:      10258.82959189
Element set:    0481
Inclination:      098.9569 deg
RA of node:       204.8624 deg
Eccentricity:    0.0014669
Arg of perigee:   154.9296 deg
Mean anomaly:     205.2587 deg
Mean motion:   14.11390285 rev/day
Decay rate:       4.25e-06 rev/day^2
Epoch rev:           27422
Checksum:              349

